This is the latest recevied weather packets stored in our database for station/object N4JTC. If no packets are shown the sender has not sent any weather packets the latest 10 day(s).
| Time | Temp. | Humidity | Pressure | Rain* | Wind** | Luminosity | Snow |
|---|---|---|---|---|---|---|---|
| 1778110803 | 25.56° C | 83% | 1014.7 hPa | 0 mm | - | 42 W/m² | - |
| 1778110503 | 25.56° C | 83% | 1014.8 hPa | 0 mm | - | 58 W/m² | - |
| 1778109903 | 26.11° C | 82% | 1014.7 hPa | 0 mm | - | 81 W/m² | - |
| 1778109603 | 26.11° C | 81% | 1014.9 hPa | 0 mm | - | 94 W/m² | - |
| 1778109303 | 26.11° C | 81% | 1014.6 hPa | 0 mm | - | 110 W/m² | - |
| 1778109003 | 26.11° C | 79% | 1014.6 hPa | 0 mm | - | 128 W/m² | - |
| 1778108703 | 26.67° C | 79% | 1014.5 hPa | 0 mm | - | 146 W/m² | - |
| 1778108403 | 26.67° C | 78% | 1014.7 hPa | 0 mm | - | 159 W/m² | - |
| 1778108103 | 26.67° C | 77% | 1014.8 hPa | 0 mm | - | 176 W/m² | - |
| 1778107803 | 26.67° C | 78% | 1014.8 hPa | 0 mm | - | 197 W/m² | - |
| 1778107503 | 27.22° C | 76% | 1014.8 hPa | 0 mm | - | 214 W/m² | - |
| 1778106903 | 27.22° C | 75% | 1015 hPa | 0 mm | - | 252 W/m² | - |
| 1778106303 | 27.78° C | 74% | 1015.2 hPa | 0 mm | - | 272 W/m² | - |
| 1778106003 | 27.78° C | 73% | 1015.1 hPa | 0 mm | - | 308 W/m² | - |
| 1778105703 | 27.78° C | 73% | 1015.2 hPa | 0 mm | - | 323 W/m² | - |
| 1778105403 | 27.78° C | 73% | 1015 hPa | 0 mm | - | 342 W/m² | - |
| 1778105103 | 27.78° C | 72% | 1015.2 hPa | 0 mm | - | 367 W/m² | - |
| 1778104803 | 27.78° C | 72% | 1015.4 hPa | 0 mm | - | 376 W/m² | - |
| 1778104503 | 27.78° C | 73% | 1015.6 hPa | 0 mm | - | 397 W/m² | - |
| 1778104203 | 27.78° C | 72% | 1015.4 hPa | 0 mm | - | 419 W/m² | - |
| 1778103903 | 28.33° C | 70% | 1015.5 hPa | 0 mm | - | 430 W/m² | - |
| 1778103603 | 28.33° C | 72% | 1015.8 hPa | 0 mm | - | 415 W/m² | - |
| 1778103303 | 28.33° C | 71% | 1015.8 hPa | 0 mm | - | 337 W/m² | - |
| 1778103003 | 28.33° C | 70% | 1015.8 hPa | 0 mm | - | 332 W/m² | - |
| 1778102703 | 28.33° C | 70% | 1015.7 hPa | 0 mm | - | 391 W/m² | - |
* Rain latest hour (hover to see other rain measurements)
** Current wind speed in m/s (hover to see current wind gust speed)